User: anonymous   Login
Location: Hungerford
(51.4167°N, 1.5167°W)
Time: 11:40:59
(UTC+00:00)
Language:

Cosmos 909 Rocket - Orbit

View from above orbital plane
View from above orbital plane
View from above satellite
View from above satellite

Ground track
Ground track

The orbit data is extracted from the following two-line orbital elements,

1 10011U 77036B   20329.95607068 -.00000104 +00000-0 -18783-3 0  9990
2 10011 065.8681 050.4247 0692474 106.7086 059.6621 12.32232836936954
Epoch (UTC): 24 November 2020 22:56:44
Eccentricity: 0.0692474
inclination: 65.8681°
perigee height: 991 km
apogee height: 2088 km
right ascension of ascending node: 50.4247°
argument of perigee: 106.7086°
revolutions per day: 12.32232836
mean anomaly at epoch: 59.6621°
orbit number at epoch: 93695

The dashed part of the orbit path shows where the satellite is in the earth's shadow,  

DLR